Tracking 23114 objects as of 15-May-2021
HD Live streaming from Space Station
objects crossing your sky now

GSLV R/B


GSLV R/B is no longer on orbit


NORAD ID: 41753
Int'l Code: 2016-054B
Perigee: N/A
Apogee: N/A
Inclination: N/A
Period: N/A
Semi major axis: N/A
RCS: N/A
Launch date: September 8, 2016
Source: India (IND)
Launch site: SRIHARIKOTA (SRI)
Decay date: 2019-04-29

Note: This is a ROCKET BODY
aabbcc
Your satellite tracking list
Your tracking list is empty




NASA's NSSDC Master Catalog

Two Line Element Set (TLE):
1 41753U 16054B   19119.63111340  .99999999 -17653-4  10139-2 0  9991
2 41753  20.5476 119.5109 0195404   4.6669 128.2198 16.17129010 33315
Source of the keplerian elements: AFSPC